Regional Weather Roundup
Issued by NWS

Home | Current Version | Previous Version | Graphics & Text | Print | Product List | Glossary On
Versions: 1 2 3 4 5 6 7 8 9 10 11 12 13 14 15 16 17 18 19 20 21 22 23 24 25 26 27 28 29 30 31 32 33 34 35 36 37 38 39 40 41 42 43 44 45 46 47 48 49 50
000
ASUS45 KTFX 041310
RWRMT
MONTANA REGIONAL WEATHER ROUNDUP
NATIONAL WEATHER SERVICE GREAT FALLS MT
700 AM MDT TUE AUG 04 2015

NOTE: "FAIR" INDICATES FEW OR NO CLOUDS BELOW 12000 FEET WITH NO
SIGNIFICANT WEATHER AND/OR OBSTRUCTIONS TO VISIBILITY.

MTZ001>007-043-041400-
WEST OF THE DIVIDE

CITY           SKY/WX    TMP DP  RH WIND       PRES   REMARKS
KALISPELL      CLOUDY    65  54  67 CALM      29.91R
MISSOULA       CLOUDY    65  43  44 W3        29.97R
BUTTE          CLOUDY    64  47  53 CALM      30.09S
MULLAN PASS    CLOUDY    58  40  51 VRB6      30.10S
DEER LODGE       N/A     63  46  55 CALM      30.07R
EUREKA           N/A     63  52  67 S3        29.91R
HAMILTON         N/A     63  45  51 S6        29.98S
LIBBY            N/A     61  52  72 CALM      29.92R
$$

MTZ008-052>055-041400-
SOUTHWEST MONTANA

CITY           SKY/WX    TMP DP  RH WIND       PRES   REMARKS
BOZEMAN        CLOUDY    62  54  74 SE7       30.03S
DILLON         CLOUDY    59  53  80 SW5       30.09R
W YELLOWSTONE  CLOUDY    52  50  93 NE3       30.20R
$$

MTZ009-010-012-014-046-048-049-054-041400-
EAST SLOPES AND CENTRAL MONTANA

CITY           SKY/WX    TMP DP  RH WIND       PRES   REMARKS
CUT BANK       CLOUDY    73  42  32 VRB7      29.90R
GREAT FALLS    CLOUDY    72  42  34 SW6       29.90R
MALMSTROM AFB  MOCLDY    72  43  35 W2        29.90R
HELENA         CLOUDY    75  47  36 E3        29.95R
CONRAD           N/A     62  57  83 SE5       29.93
$$

MTZ011-013-016-021-045-047-050-051-041400-
NORTH CENTRAL MONTANA

CITY           SKY/WX    TMP DP  RH WIND       PRES   REMARKS
HAVRE          MOCLDY    62  53  72 E5        29.81R
LEWISTOWN      PTCLDY    61  48  62 SE6       29.94
CHINOOK          N/A     64  52  63 E13G20    29.81R
FORT BENTON      N/A     70  48  46 S5        29.86R
$$

MTZ017>020-022>027-061-062-041400-
NORTHEAST MONTANA

CITY           SKY/WX    TMP DP  RH WIND       PRES   REMARKS
GLASGOW        MOSUNNY   65  48  54 E17       29.88R
JORDAN           N/A     68  52  56 E5        29.88R
SIDNEY         MOSUNNY   63  48  59 NW3       29.94F
WOLF POINT     MOSUNNY   62  49  62 E13       29.91R
MALTA            N/A     64  50  60 NE6       29.83S
POPLAR           N/A     63  48  59 E12       29.92S
$$

MTZ028>42-056>058-041400-
SOUTHCENTRAL AND SOUTHEAST MONTANA

CITY           SKY/WX    TMP DP  RH WIND       PRES   REMARKS
BAKER          MOSUNNY   60  52  74 SE10      29.97R
BILLINGS       MOCLDY    69  48  47 SW10      29.92R
LIVINGSTON     MOCLDY    70  48  45 SW18      30.01R
MILES CITY     MOSUNNY   65  53  65 NE6       29.89R
FORSYTH          N/A     68  55  64 E5        29.88R
LAUREL           N/A     68  47  46 SW3       29.93R
$$

REGIONAL REPORTS...DAKOTAS

CITY           SKY/WX    TMP DP  RH WIND       PRES   REMARKS
WILLISTON      SUNNY     66  51  58 NE5       29.97R
MINOT          SUNNY     57  50  77 CALM      30.01R
DICKINSON      MOSUNNY   57  50  77 E9        29.97R
CROSBY         FAIR      55  55 100 CALM      29.99S
BISMARCK       MOSUNNY   58  52  80 E6        30.01S
GRAND FORKS    MOSUNNY   57  52  83 NW3       30.01R
FARGO          SUNNY     58  50  75 CALM      30.02R
BUFFALO SD       N/A     61  54  77 NE6       29.90S
RAPID CITY     PTSUNNY   64  59  83 SW6       29.96F
$$

REGIONAL REPORTS...WYOMING/IDAHO/WASHINGTON

CITY           SKY/WX    TMP DP  RH WIND       PRES   REMARKS
GILLETTE       PTSUNNY   62  53  72 CALM      29.98R
SHERIDAN       MOCLDY    65  49  56 W7        29.95R
BUFFALO WY     MOCLDY    63  48  58 NW5       30.00R
CODY           CLOUDY    63  50  63 W3        30.02R
YELLOWSTONE LA   N/A     48  47  96 CALM      30.28R
IDAHO FALLS    PTCLDY    55  53  93 N3        30.13R
SALMON         PTCLDY    57  46  67 SE5       30.02R
BOISE          PTCLDY    66  54  65 S5        29.97R
SPOKANE        MOCLDY    64  46  52 S9        29.90R
$$

REGIONAL REPORTS...ALBERTA

CITY           SKY/WX    TMP DP  RH WIND       PRES   REMARKS
EDMONTON       CLEAR     63  55  77 W10       29.81R
CALGARY        LGT RAIN  68  48  49 N14       29.90R
LETHBRIDGE     MOCLDY    66  52  59 SW6       29.85R
MEDICINE HAT   LGT RAIN  73  50  43 SW20G25   29.75R
WATERTON GATE    N/A     66  45  45 SW7         N/A
MILK RIVER       N/A     70  48  46 NW10        N/A
$$

REGIONAL REPORTS...SASKATCHEWAN

CITY           SKY/WX    TMP DP  RH WIND       PRES   REMARKS
SWIFT CURRENT  MOSUNNY   59  52  77 SE12G21   29.87S
REGINA         MOSUNNY   59  48  67 SE12      29.98S
SASKATOON      PTSUNNY   63  54  72 SE10      29.98R
CYPRESS HILLS    N/A     59  45  58 SE13G18     N/A
VAL MARIE        N/A     64  50  59 SE13        N/A
ROCKGLEN         N/A     59  50  72 E13         N/A
ASSINIBOIA       N/A     64  61  88 SE13        N/A
$$



USA.gov is the U.S. government's official web portal to all federal, state and local government web resources and services.